This demonstration page uses our WeatherBlox Daily Observations layout. Learn more.

Hourly Observations for October 6, 2019

Temp ( °F °C ) Dew Point ( °F °C ) Humidity (%) Winds ( mph kmh ) Pressure ( in mb ) Visibility ( mi km ) Precip ( " mm )
12:15 am 00:15 Clear 44 6.5 38 3.5 81 81 Calm 30.15 1021 10 16.09344 0 0
12:35 am 00:35 Clear 41 5.2 39 4.1 93 93 Calm 30.15 1021 10 16.09344 0 0
12:55 am 00:55 Clear 42 5.7 40 4.6 93 93 Calm 30.15 1021 10 16.09344 0 0
1:15 am 01:15 Clear 41 5.2 39 4.1 93 93 Calm 30.15 1021 10 16.09344 0 0
1:35 am 01:35 Clear 42 5.5 40 4.3 92 92 Calm 30.15 1021 10 16.09344 0 0
1:55 am 01:55 Clear 41 5 40 4.2 95 95 Calm 30.15 1021 10 16.09344 0 0
2:15 am 02:15 Clear 42 5.7 41 5.2 97 97 Calm 30.15 1021 10 16.09344 0 0
2:35 am 02:35 Clear 43 6.1 40 4.6 90 90 Calm 30.15 1021 10 16.09344 0 0
2:55 am 02:55 Clear 44 6.5 40 4.6 88 88 NNW 3 6 30.15 1021 10 16.09344 0 0
3:15 am 03:15 Clear 44 6.5 40 4.6 88 88 Calm 30.18 1022 10 16.09344 0 0
3:35 am 03:35 Clear 44 6.5 41 5.1 91 91 NW 3 6 30.18 1022 10 16.09344 0 0
3:55 am 03:55 Clear 44 6.6 42 5.4 92 92 Calm 30.18 1022 10 16.09344 0 0
4:15 am 04:15 Clear 44 6.8 42 5.5 92 92 Calm 30.18 1022 10 16.09344 0 0
4:35 am 04:35 Clear 45 7 42 5.5 90 90 Calm 30.18 1022 10 16.09344 0 0
4:55 am 04:55 Clear 45 7 42 5.6 91 91 Calm 30.18 1022 10 16.09344 0 0
5:15 am 05:15 Clear 45 7 42 5.6 91 91 NW 3 6 30.18 1022 10 16.09344 0 0
5:35 am 05:35 Partly Cloudy 44 6.9 42 5.7 92 92 NW 3 6 30.18 1022 10 16.09344 0 0
5:55 am 05:55 Partly Cloudy 44 6.8 42 5.8 93 93 Calm 30.18 1022 10 16.09344 0 0
6:15 am 06:15 Partly Cloudy 44 6.9 42 5.6 92 92 NW 3 6 30.18 1022 10 16.09344 0 0
6:35 am 06:35 Clear 44 6.9 42 5.5 91 91 NNW 5 7 30.21 1023 10 16.09344 0 0
6:55 am 06:55 Partly Cloudy 45 7 42 5.3 89 89 NNW 6 9 30.21 1023 10 16.09344 0 0
7:15 am 07:15 Partly Cloudy 45 7 41 5.2 88 88 NNW 6 9 30.24 1024 10 16.09344 0 0
7:35 am 07:35 Clear 45 7.3 41 5.2 87 87 NNW 6 9 30.24 1024 10 16.09344 0 0
7:55 am 07:55 Mostly Cloudy 46 7.6 41 5.2 85 85 NNW 7 11 30.24 1024 10 16.09344 0 0
8:15 am 08:15 Cloudy 47 8.5 41 4.8 78 78 NNW 8 13 30.24 1024 10 16.09344 0 0
8:35 am 08:35 Cloudy 48 9.1 40 4.5 73 73 NNW 6 9 30.24 1024 10 16.09344 0 0
8:55 am 08:55 Cloudy 51 10.3 39 3.9 65 65 NNW 7 11 30.24 1024 10 16.09344 0 0
9:15 am 09:15 Cloudy 50 10.1 40 4.5 68 68 NNW 7 11 30.27 1025 10 16.09344 0 0
9:35 am 09:35 Cloudy 51 10.7 40 4.6 66 66 NNW 8 13 30.27 1025 10 16.09344 0 0
9:55 am 09:55 Cloudy 52 11.2 40 4.5 64 64 NNW 7 11 30.27 1025 10 16.09344 0 0
10:15 am 10:15 Cloudy 52 11.3 41 5 65 65 NW 7 11 30.27 1025 10 16.09344 0 0
10:35 am 10:35 Cloudy 52 11.2 42 5.5 68 68 NW 6 9 30.3 1026 10 16.09344 0 0
10:55 am 10:55 Cloudy 53 11.5 43 6 69 69 NW 13 20 30.3 1026 10 16.09344 0 0
11:15 am 11:15 Cloudy with Light Rain 53 11.5 44 6.7 73 73 NW 10 17 30.33 1027 10 16.09344 0 0
11:35 am 11:35 Cloudy with Rain 53 11.4 45 7.4 77 77 W 6 9 30.33 1027 10 16.09344 0 0
11:55 am 11:55 Cloudy with Light Rain 53 11.5 47 8.5 82 82 WSW 8 13 30.33 1027 10 16.09344 0 0
12:15 pm 12:15 Cloudy 54 12 46 8 77 77 WSW 9 15 30.27 1025 10 16.09344 0 0
12:35 pm 12:35 Cloudy 55 12.6 46 7.8 73 73 WSW 12 19 30.27 1025 10 16.09344 0 0
12:55 pm 12:55 Cloudy 55 12.8 47 8.3 74 74 SW 10 17 30.27 1025 10 16.09344 0 0
1:15 pm 13:15 Cloudy 56 13.2 46 7.8 70 70 WSW 10 17 30.3 1026 10 16.09344 0 0
1:35 pm 13:35 Cloudy 56 13.2 46 8 71 71 WSW 9 15 30.27 1025 10 16.09344 0 0
1:55 pm 13:55 Cloudy 56 13.5 46 7.5 67 67 WSW 9 15 30.27 1025 10 16.09344 0 0
2:15 pm 14:15 Partly Cloudy 58 14.7 45 7.2 61 61 W 9 15 30.27 1025 10 16.09344 0 0
2:35 pm 14:35 Sunny 60 15.3 41 5.2 51 51 W 13 20 30.24 1024 10 16.09344 0 0
2:55 pm 14:55 Sunny 62 16.7 42 5.5 48 48 W 8 13 30.21 1023 10 16.09344 0 0
3:15 pm 15:15 Sunny 63 17.1 40 4.7 44 44 W 10 17 30.21 1023 10 16.09344 0 0
3:35 pm 15:35 Sunny 64 17.5 38 3.2 39 39 WNW 13 20 30.21 1023 10 16.09344 0 0
3:55 pm 15:55 Sunny 63 17.4 37 3 38 38 NW 8 13 30.21 1023 10 16.09344 0 0
4:15 pm 16:15 Partly Cloudy 64 17.8 37 2.8 37 37 NW 12 19 30.21 1023 10 16.09344 0 0
4:35 pm 16:35 Sunny 64 17.8 37 2.5 36 36 NW 10 17 30.21 1023 10 16.09344 0 0
4:55 pm 16:55 Sunny 63 17.2 37 2.5 38 38 WNW 8 13 30.18 1022 10 16.09344 0 0
5:15 pm 17:15 Sunny 64 17.7 37 2.6 37 37 W 8 13 30.18 1022 10 16.09344 0 0
5:35 pm 17:35 Sunny 64 17.8 36 2 35 35 NNW 8 13 30.18 1022 10 16.09344 0 0
5:55 pm 17:55 Sunny 64 17.8 35 1.9 35 35 NW 5 7 30.18 1022 10 16.09344 0 0
6:15 pm 18:15 Sunny 64 17.6 34 1.2 33 33 WNW 7 11 30.18 1022 10 16.09344 0 0
6:35 pm 18:35 Sunny 62 16.8 34 1.3 35 35 Calm 30.18 1022 10 16.09344 0 0
6:55 pm 18:55 Sunny 61 16.1 34 1 36 36 Calm 30.18 1022 10 16.09344 0 0
7:15 pm 19:15 Clear 56 13.4 35 1.9 46 46 Calm 30.21 1023 10 16.09344 0 0
7:35 pm 19:35 Clear 56 13.2 35 1.8 46 46 W 3 6 30.21 1023 10 16.09344 0 0
7:55 pm 19:55 Clear 53 11.7 37 2.7 54 54 W 3 6 30.21 1023 10 16.09344 0 0
8:15 pm 20:15 Clear 51 10.4 37 3 60 60 W 3 6 30.27 1025 10 16.09344 0 0
8:35 pm 20:35 Clear 51 10.8 36 2.4 56 56 Calm 30.27 1025 10 16.09344 0 0
8:55 pm 20:55 Clear 46 7.9 38 3.3 73 73 W 3 6 30.3 1026 10 16.09344 0 0
9:15 pm 21:15 Clear 45 7.4 37 2.9 73 73 Calm 30.3 1026 10 16.09344 0 0
9:35 pm 21:35 Clear 46 7.6 37 2.6 71 71 Calm 30.3 1026 10 16.09344 0 0
9:55 pm 21:55 Clear 44 6.6 38 3.1 79 79 Calm 30.3 1026 10 16.09344 0 0
10:15 pm 22:15 Clear 44 6.7 38 3.3 79 79 Calm 30.33 1027 10 16.09344 0 0
10:35 pm 22:35 Clear 44 6.5 37 2.6 76 76 Calm 30.33 1027 10 16.09344 0 0
10:55 pm 22:55 Clear 44 6.9 37 2.5 74 74 Calm 30.33 1027 10 16.09344 0 0
11:15 pm 23:15 Clear 43 5.9 35 1.9 76 76 Calm 30.33 1027 10 16.09344 0 0
11:35 pm 23:35 Clear 41 5.2 35 1.8 79 79 Calm 30.36 1028 10 16.09344 0 0
11:55 pm 23:55 Clear 41 4.8 36 2.2 83 83 Calm 30.36 1028 10 16.09344 0 0

Powered by AerisWeather